This is the latest recevied weather packets stored in our database for station/object LU3HGB-WX. If no packets are shown the sender has not sent any weather packets the latest 10 day(s).
| Time | Temp. | Humidity | Pressure | Rain* | Wind** | Luminosity | Snow |
|---|---|---|---|---|---|---|---|
| 1788113259 | 25° C | 22% | 1010 hPa | 0 mm | - | 939 W/m² | - |
| 1788112960 | 24.44° C | 22% | 1010 hPa | 0 mm | - | 988 W/m² | - |
| 1788112659 | 24.44° C | 22% | 1010 hPa | 0 mm | - | 908 W/m² | - |
| 1788112367 | 24.44° C | 22% | 1010 hPa | 0 mm | - | 927 W/m² | - |
| 1788112059 | 23.89° C | 24% | 1011 hPa | 0 mm | - | 852 W/m² | - |
| 1788111759 | 23.89° C | 23% | 1011 hPa | 0 mm | - | 847 W/m² | - |
| 1788111459 | 23.89° C | 23% | 1011 hPa | 0 mm | - | 853 W/m² | - |
| 1788111159 | 23.33° C | 22% | 1011 hPa | 0 mm | - | 864 W/m² | - |
| 1788110859 | 23.33° C | 22% | 1011 hPa | 0 mm | - | 871 W/m² | - |
| 1788110559 | 23.33° C | 23% | 1011 hPa | 0 mm | - | 877 W/m² | - |
| 1788110260 | 23.33° C | 22% | 1011 hPa | 0 mm | - | 886 W/m² | - |
| 1788109959 | 23.33° C | 22% | 1011 hPa | 0 mm | - | 891 W/m² | - |
| 1788109660 | 23.33° C | 21% | 1011 hPa | 0 mm | - | 894 W/m² | - |
| 1788109359 | 23.33° C | 21% | 1011 hPa | 0 mm | - | 895 W/m² | - |
| 1788109059 | 23.33° C | 21% | 1012 hPa | 0 mm | - | 897 W/m² | - |
| 1788108759 | 22.78° C | 20% | 1012 hPa | 0 mm | - | 901 W/m² | - |
| 1788108459 | 22.78° C | 20% | 1012 hPa | 0 mm | - | 903 W/m² | - |
| 1788108164 | 22.78° C | 21% | 1012 hPa | 0 mm | - | 905 W/m² | - |
| 1788107859 | 22.78° C | 21% | 1012 hPa | 0 mm | - | 907 W/m² | - |
| 1788107559 | 22.78° C | 23% | 1012 hPa | 0 mm | - | 906 W/m² | - |
| 1788107260 | 22.78° C | 22% | 1012 hPa | 0 mm | - | 907 W/m² | - |
| 1788106959 | 22.78° C | 21% | 1012 hPa | 0 mm | - | 907 W/m² | - |
| 1788106659 | 22.78° C | 20% | 1012 hPa | 0 mm | - | 905 W/m² | - |
| 1788106360 | 22.78° C | 23% | 1012 hPa | 0 mm | - | 903 W/m² | - |
| 1788106060 | 22.78° C | 21% | 1012 hPa | 0 mm | - | 900 W/m² | - |
* Rain latest hour (hover to see other rain measurements)
** Current wind speed in m/s (hover to see current wind gust speed)